Location: Proctor
(47.8934°N, 114.3048°W)
Time: 16:12:26
(UTC+00:00)

Courier 1B Rocket - Pass Details

Date: 13 June 2024
Orbit: 920 x 1201 km, 28.2° (Epoch: 16 July)

Event Time Altitude Azimuth Distance (km) Brightness Sun altitude
Rises 14:29:26 0° 225° (SW) 4,011 7.8 25.6°
Reaches altitude 10° 14:33:33 10° 205° (SSW) 3,089 7.4 26.2°
Maximum altitude 14:37:45 16° 171° (S) 2,708 7.5 26.9°
Drops below altitude 10° 14:41:59 10° 138° (SE) 3,128 8.3 27.7°
Sets 14:46:12 0° 118° (ESE) 4,089 9.1 28.4°
